STARLINK-1880 (47165 NORAD) Tracking and Keplerian Element Data
This shows tracking and keplerian element data for the satellite.
Feedback or suggestion? Click here.
Element | Value |
Catalog | 47165 |
Name | STARLINK-1880 |
Epoch Orbit | 175 |
Epoch Day | 62.91667824 |
Epoch Year | 2021 |
RAAN | 244.7598 |
Inclination | 53.0545 |
Eccentricity | 0.0002208 |
Argument of Perigee | 86.9766 |
Mean Anonmoly | 51.0701 |
Mean Motion | 15.06398411 |
Decay Rate | -2.742E-05 |
L1 | 1 47165U 20088AV 21062.91667824 -.00002742 00000-0 -16522-3 0 9991 |
L2 | 2 47165 53.0545 244.7598 0002208 86.9766 51.0701 15.06398411 1755 |
Live tracking and technical data element details for STARLINK-1880 (NORAD 47165). STARLINK-1880 can be tracked NOW for your location showing map with azimuth and elevation plus other details from your city location.
Track the satellite on the map from your city or location and see movement details for azimuth, elevation, latitude, longitude, range, height, and movement on the map or in text.
IsCatalogInMostPopularTable: catalog: 47165, numindb: 39
Update: records affected: 1
GetName: 47165 STARLINK-1880
Hit Count: updated at: Fri, 05 Mar 2021 07:12:03 GMT